Year,Month,Day,Hour,Minute,Value (Times are PST for temperature in C)
2014,10,24,00,00,7.90
2014,10,24,00,01,7.90
2014,10,24,00,02,7.90
2014,10,24,00,03,7.90
2014,10,24,00,04,7.90
2014,10,24,00,05,7.90
2014,10,24,00,06,7.90
2014,10,24,00,07,7.90
2014,10,24,00,08,7.90
2014,10,24,00,09,7.90
2014,10,24,00,10,7.90
2014,10,24,00,11,7.90
2014,10,24,00,12,7.90
2014,10,24,00,13,7.90
2014,10,24,00,14,7.90
2014,10,24,00,15,7.90
2014,10,24,00,16,7.90
2014,10,24,00,17,7.90
2014,10,24,00,18,7.90
2014,10,24,00,19,7.90
2014,10,24,00,20,7.90
2014,10,24,00,21,7.90
2014,10,24,00,22,7.90
2014,10,24,00,23,7.90
2014,10,24,00,24,7.90
2014,10,24,00,25,7.90
2014,10,24,00,26,7.90
2014,10,24,00,27,7.90
2014,10,24,00,28,7.90
2014,10,24,00,29,7.90
2014,10,24,00,30,7.90
2014,10,24,00,31,7.90
2014,10,24,00,32,7.90
2014,10,24,00,33,7.80
2014,10,24,00,34,7.80
2014,10,24,00,35,7.80
2014,10,24,00,36,7.80
2014,10,24,00,37,7.70
2014,10,24,00,38,7.70
2014,10,24,00,39,7.60
2014,10,24,00,40,7.60
2014,10,24,00,41,7.60
2014,10,24,00,42,7.50
2014,10,24,00,43,7.50
2014,10,24,00,44,7.50
2014,10,24,00,45,7.40
2014,10,24,00,46,7.40
2014,10,24,00,47,7.30
2014,10,24,00,48,7.30
2014,10,24,00,49,7.30
2014,10,24,00,50,7.30
2014,10,24,00,51,7.30
2014,10,24,00,52,7.30
2014,10,24,00,53,7.30
2014,10,24,00,54,7.30
2014,10,24,00,55,7.30
2014,10,24,00,56,7.30
2014,10,24,00,57,7.30
2014,10,24,00,58,7.30
2014,10,24,00,59,7.30
2014,10,24,01,00,7.30
2014,10,24,01,01,7.30
2014,10,24,01,02,7.30
2014,10,24,01,03,7.30
2014,10,24,01,04,7.30
2014,10,24,01,05,7.30
2014,10,24,01,06,7.30
2014,10,24,01,07,7.30
2014,10,24,01,08,7.30
2014,10,24,01,09,7.30
2014,10,24,01,10,7.30
2014,10,24,01,11,7.30
2014,10,24,01,12,7.30
2014,10,24,01,13,7.30
2014,10,24,01,14,7.30
2014,10,24,01,15,7.30
2014,10,24,01,16,7.30
2014,10,24,01,17,7.20
2014,10,24,01,18,7.20
2014,10,24,01,19,7.20
2014,10,24,01,20,7.20
2014,10,24,01,21,7.20
2014,10,24,01,22,7.20
2014,10,24,01,23,7.20
2014,10,24,01,24,7.20
2014,10,24,01,25,7.20
2014,10,24,01,26,7.20
2014,10,24,01,27,7.20
2014,10,24,01,28,7.20
2014,10,24,01,29,7.20
2014,10,24,01,30,7.20
2014,10,24,01,31,7.20
2014,10,24,01,32,7.20
2014,10,24,01,33,7.20
2014,10,24,01,34,7.20
2014,10,24,01,35,7.20
2014,10,24,01,36,7.20
2014,10,24,01,37,7.20
2014,10,24,01,38,7.30
2014,10,24,01,39,7.30
2014,10,24,01,40,7.30
2014,10,24,01,41,7.30
2014,10,24,01,42,7.30
2014,10,24,01,43,7.30
2014,10,24,01,44,7.30
2014,10,24,01,45,7.30
2014,10,24,01,46,7.30
2014,10,24,01,47,7.30
2014,10,24,01,48,7.30
2014,10,24,01,49,7.30
2014,10,24,01,50,7.30
2014,10,24,01,51,7.30
2014,10,24,01,52,7.30
2014,10,24,01,53,7.30
2014,10,24,01,54,7.30
2014,10,24,01,55,7.30
2014,10,24,01,56,7.30
2014,10,24,01,57,7.30
2014,10,24,01,58,7.30
2014,10,24,01,59,7.30
2014,10,24,02,00,7.30
2014,10,24,02,01,7.30
2014,10,24,02,02,7.30
2014,10,24,02,03,7.30
2014,10,24,02,04,7.30
2014,10,24,02,05,7.30
2014,10,24,02,06,7.30
2014,10,24,02,07,7.30
2014,10,24,02,08,7.30
2014,10,24,02,09,7.30
2014,10,24,02,10,7.30
2014,10,24,02,11,7.30
2014,10,24,02,12,7.30
2014,10,24,02,13,7.30
2014,10,24,02,14,7.30
2014,10,24,02,15,7.30
2014,10,24,02,16,7.40
2014,10,24,02,17,7.40
2014,10,24,02,18,7.40
2014,10,24,02,19,7.40
2014,10,24,02,20,7.40
2014,10,24,02,21,7.40
2014,10,24,02,22,7.30
2014,10,24,02,23,7.10
2014,10,24,02,24,6.80
2014,10,24,02,25,6.70
2014,10,24,02,26,6.60
2014,10,24,02,27,6.50
2014,10,24,02,28,6.40
2014,10,24,02,29,6.30
2014,10,24,02,30,6.20
2014,10,24,02,31,6.20
2014,10,24,02,32,6.10
2014,10,24,02,33,6.10
2014,10,24,02,34,6.10
2014,10,24,02,35,6.00
2014,10,24,02,36,6.00
2014,10,24,02,37,6.00
2014,10,24,02,38,6.00
2014,10,24,02,39,5.90
2014,10,24,02,40,5.90
2014,10,24,02,41,5.90
2014,10,24,02,42,5.90
2014,10,24,02,43,5.90
2014,10,24,02,44,5.90
2014,10,24,02,45,5.90
2014,10,24,02,46,5.90
2014,10,24,02,47,5.90
2014,10,24,02,48,5.80
2014,10,24,02,49,5.80
2014,10,24,02,50,5.80
2014,10,24,02,51,5.80
2014,10,24,02,52,5.80
2014,10,24,02,53,5.80
2014,10,24,02,54,5.80
2014,10,24,02,55,5.90
2014,10,24,02,56,5.90
2014,10,24,02,57,5.90
2014,10,24,02,58,5.90
2014,10,24,02,59,5.90
2014,10,24,03,00,5.90
2014,10,24,03,01,6.00
2014,10,24,03,02,6.00
2014,10,24,03,03,6.10
2014,10,24,03,04,6.10
2014,10,24,03,05,6.10
2014,10,24,03,06,6.20
2014,10,24,03,07,6.20
2014,10,24,03,08,6.20
2014,10,24,03,09,6.20
2014,10,24,03,10,6.20
2014,10,24,03,11,6.20
2014,10,24,03,12,6.30
2014,10,24,03,13,6.30
2014,10,24,03,14,6.30
2014,10,24,03,15,6.30
2014,10,24,03,16,6.30
2014,10,24,03,17,6.30
2014,10,24,03,18,6.30
2014,10,24,03,19,6.30
2014,10,24,03,20,6.30
2014,10,24,03,21,6.30
2014,10,24,03,22,6.30
2014,10,24,03,23,6.30
2014,10,24,03,24,6.30
2014,10,24,03,25,6.30
2014,10,24,03,26,6.30
2014,10,24,03,27,6.30
2014,10,24,03,28,6.30
2014,10,24,03,29,6.30
2014,10,24,03,30,6.30
2014,10,24,03,31,6.30
2014,10,24,03,32,6.30
2014,10,24,03,33,6.30
2014,10,24,03,34,6.30
2014,10,24,03,35,6.20
2014,10,24,03,36,6.20
2014,10,24,03,37,6.20
2014,10,24,03,38,6.20
2014,10,24,03,39,6.20
2014,10,24,03,40,6.20
2014,10,24,03,41,6.20
2014,10,24,03,42,6.20
2014,10,24,03,43,6.30
2014,10,24,03,44,6.30
2014,10,24,03,45,6.30
2014,10,24,03,46,6.30
2014,10,24,03,47,6.40
2014,10,24,03,48,6.30
2014,10,24,03,49,6.30
2014,10,24,03,50,6.30
2014,10,24,03,51,6.30
2014,10,24,03,52,6.30
2014,10,24,03,53,6.30
2014,10,24,03,54,6.30
2014,10,24,03,55,6.30
2014,10,24,03,56,6.20
2014,10,24,03,57,6.20
2014,10,24,03,58,6.20
2014,10,24,03,59,6.20
2014,10,24,04,00,6.20
2014,10,24,04,01,6.20
2014,10,24,04,02,6.20
2014,10,24,04,03,6.20
2014,10,24,04,04,6.20
2014,10,24,04,05,6.20
2014,10,24,04,06,6.20
2014,10,24,04,07,6.20
2014,10,24,04,08,6.20
2014,10,24,04,09,6.20
2014,10,24,04,10,6.20
2014,10,24,04,11,6.20
2014,10,24,04,12,6.20
2014,10,24,04,13,6.20
2014,10,24,04,14,6.20
2014,10,24,04,15,6.10
2014,10,24,04,16,6.20
2014,10,24,04,17,6.20
2014,10,24,04,18,6.10
2014,10,24,04,19,6.20
2014,10,24,04,20,6.10
2014,10,24,04,21,6.10
2014,10,24,04,22,6.10
2014,10,24,04,23,6.20
2014,10,24,04,24,6.20
2014,10,24,04,25,6.20
2014,10,24,04,26,6.20
2014,10,24,04,27,6.20
2014,10,24,04,28,6.20
2014,10,24,04,29,6.20
2014,10,24,04,30,6.30
2014,10,24,04,31,6.30
2014,10,24,04,32,6.30
2014,10,24,04,33,6.30
2014,10,24,04,34,6.30
2014,10,24,04,35,6.30
2014,10,24,04,36,6.30
2014,10,24,04,37,6.30
2014,10,24,04,38,6.30
2014,10,24,04,39,6.20
2014,10,24,04,40,6.20
2014,10,24,04,41,6.20
2014,10,24,04,42,6.20
2014,10,24,04,43,6.20
2014,10,24,04,44,6.20
2014,10,24,04,45,6.20
2014,10,24,04,46,6.30
2014,10,24,04,47,6.20
2014,10,24,04,48,6.20
2014,10,24,04,49,6.20
2014,10,24,04,50,6.20
2014,10,24,04,51,6.20
2014,10,24,04,52,6.30
2014,10,24,04,53,6.30
2014,10,24,04,54,6.30
2014,10,24,04,55,6.30
2014,10,24,04,56,6.30
2014,10,24,04,57,6.30
2014,10,24,04,58,6.30
2014,10,24,04,59,6.30
2014,10,24,05,00,6.20
2014,10,24,05,01,6.20
2014,10,24,05,02,6.20
2014,10,24,05,03,6.20
2014,10,24,05,04,6.20
2014,10,24,05,05,6.20
2014,10,24,05,06,6.20
2014,10,24,05,07,6.20
2014,10,24,05,08,6.20
2014,10,24,05,09,6.20
2014,10,24,05,10,6.20
2014,10,24,05,11,6.20
2014,10,24,05,12,6.20
2014,10,24,05,13,6.20
2014,10,24,05,14,6.20
2014,10,24,05,15,6.20
2014,10,24,05,16,6.20
2014,10,24,05,17,6.20
2014,10,24,05,18,6.20
2014,10,24,05,19,6.20
2014,10,24,05,20,6.20
2014,10,24,05,21,6.20
2014,10,24,05,22,6.20
2014,10,24,05,23,6.20
2014,10,24,05,24,6.20
2014,10,24,05,25,6.20
2014,10,24,05,26,6.20
2014,10,24,05,27,6.20
2014,10,24,05,28,6.20
2014,10,24,05,29,6.20
2014,10,24,05,30,6.20
2014,10,24,05,31,6.20
2014,10,24,05,32,6.20
2014,10,24,05,33,6.20
2014,10,24,05,34,6.20
2014,10,24,05,35,6.20
2014,10,24,05,36,6.20
2014,10,24,05,37,6.30
2014,10,24,05,38,6.30
2014,10,24,05,39,6.30
2014,10,24,05,40,6.30
2014,10,24,05,41,6.30
2014,10,24,05,42,6.30
2014,10,24,05,43,6.30
2014,10,24,05,44,6.30
2014,10,24,05,45,6.30
2014,10,24,05,46,6.30
2014,10,24,05,47,6.40
2014,10,24,05,48,6.40
2014,10,24,05,49,6.40
2014,10,24,05,50,6.40
2014,10,24,05,51,6.40
2014,10,24,05,52,6.40
2014,10,24,05,53,6.40
2014,10,24,05,54,6.40
2014,10,24,05,55,6.40
2014,10,24,05,56,6.40
2014,10,24,05,57,6.40
2014,10,24,05,58,6.50
2014,10,24,05,59,6.50
2014,10,24,06,00,6.50
2014,10,24,06,01,6.50
2014,10,24,06,02,6.50
2014,10,24,06,03,6.50
2014,10,24,06,04,6.50
2014,10,24,06,05,6.50
2014,10,24,06,06,6.50
2014,10,24,06,07,6.50
2014,10,24,06,08,6.50
2014,10,24,06,09,6.50
2014,10,24,06,10,6.50
2014,10,24,06,11,6.50
2014,10,24,06,12,6.50
2014,10,24,06,13,6.60
2014,10,24,06,14,6.60
2014,10,24,06,15,6.60
2014,10,24,06,16,6.60
2014,10,24,06,17,6.60
2014,10,24,06,18,6.60
2014,10,24,06,19,6.60
2014,10,24,06,20,6.60
2014,10,24,06,21,6.60
2014,10,24,06,22,6.60
2014,10,24,06,23,6.60
2014,10,24,06,24,6.60
2014,10,24,06,25,6.60
2014,10,24,06,26,6.60
2014,10,24,06,27,6.70
2014,10,24,06,28,6.70
2014,10,24,06,29,6.70
2014,10,24,06,30,6.70
2014,10,24,06,31,6.70
2014,10,24,06,32,6.70
2014,10,24,06,33,6.70
2014,10,24,06,34,6.70
2014,10,24,06,35,6.70
2014,10,24,06,36,6.70
2014,10,24,06,37,6.70
2014,10,24,06,38,6.70
2014,10,24,06,39,6.70
2014,10,24,06,40,6.70
2014,10,24,06,41,6.70
2014,10,24,06,42,6.70
2014,10,24,06,43,6.70
2014,10,24,06,44,6.70
2014,10,24,06,45,6.70
2014,10,24,06,46,6.70
2014,10,24,06,47,6.70
2014,10,24,06,48,6.70
2014,10,24,06,49,6.70
2014,10,24,06,50,6.70
2014,10,24,06,51,6.70
2014,10,24,06,52,6.70
2014,10,24,06,53,6.70
2014,10,24,06,54,6.70
2014,10,24,06,55,6.70
2014,10,24,06,56,6.70
2014,10,24,06,57,6.70
2014,10,24,06,58,6.70
2014,10,24,06,59,6.70
2014,10,24,07,00,6.60
2014,10,24,07,01,6.60
2014,10,24,07,02,6.60
2014,10,24,07,03,6.60
2014,10,24,07,04,6.60
2014,10,24,07,05,6.60
2014,10,24,07,06,6.60
2014,10,24,07,07,6.60
2014,10,24,07,08,6.60
2014,10,24,07,09,6.60
2014,10,24,07,10,6.50
2014,10,24,07,11,6.50
2014,10,24,07,12,6.50
2014,10,24,07,13,6.50
2014,10,24,07,14,6.50
2014,10,24,07,15,6.40
2014,10,24,07,16,6.40
2014,10,24,07,17,6.40
2014,10,24,07,18,6.40
2014,10,24,07,19,6.40
2014,10,24,07,20,6.40
2014,10,24,07,21,6.40
2014,10,24,07,22,6.40
2014,10,24,07,23,6.40
2014,10,24,07,24,6.40
2014,10,24,07,25,6.40
2014,10,24,07,26,6.40
2014,10,24,07,27,6.40
2014,10,24,07,28,6.30
2014,10,24,07,29,6.30
2014,10,24,07,30,6.30
2014,10,24,07,31,6.30
2014,10,24,07,32,6.30
2014,10,24,07,33,6.30
2014,10,24,07,34,6.30
2014,10,24,07,35,6.30
2014,10,24,07,36,6.30
2014,10,24,07,37,6.30
2014,10,24,07,38,6.30
2014,10,24,07,39,6.30
2014,10,24,07,40,6.30
2014,10,24,07,41,6.30
2014,10,24,07,42,6.30
2014,10,24,07,43,6.30
2014,10,24,07,44,6.30
2014,10,24,07,45,6.20
2014,10,24,07,46,6.20
2014,10,24,07,47,6.20
2014,10,24,07,48,6.20
2014,10,24,07,49,6.20
2014,10,24,07,50,6.20
2014,10,24,07,51,6.20
2014,10,24,07,52,6.20
2014,10,24,07,53,6.20
2014,10,24,07,54,6.20
2014,10,24,07,55,6.10
2014,10,24,07,56,6.10
2014,10,24,07,57,6.10
2014,10,24,07,58,6.10
2014,10,24,07,59,6.10
2014,10,24,08,00,6.10
2014,10,24,08,01,6.10
2014,10,24,08,02,6.20
2014,10,24,08,03,6.10
2014,10,24,08,04,6.10
2014,10,24,08,05,6.10
2014,10,24,08,06,6.10
2014,10,24,08,07,6.10
2014,10,24,08,08,6.10
2014,10,24,08,09,6.10
2014,10,24,08,10,6.10
2014,10,24,08,11,6.10
2014,10,24,08,12,6.10
2014,10,24,08,13,6.10
2014,10,24,08,14,6.00
2014,10,24,08,15,6.10
2014,10,24,08,16,6.10
2014,10,24,08,17,6.10
2014,10,24,08,18,6.10
2014,10,24,08,19,6.10
2014,10,24,08,20,6.10
2014,10,24,08,21,6.10
2014,10,24,08,22,6.10
2014,10,24,08,23,6.10
2014,10,24,08,24,6.10
2014,10,24,08,25,6.10
2014,10,24,08,26,6.10
2014,10,24,08,27,6.10
2014,10,24,08,28,6.10
2014,10,24,08,29,6.10
2014,10,24,08,30,6.10
2014,10,24,08,31,6.20
2014,10,24,08,32,6.20
2014,10,24,08,33,6.20
2014,10,24,08,34,6.20
2014,10,24,08,35,6.20
2014,10,24,08,36,6.20
2014,10,24,08,37,6.20
2014,10,24,08,38,6.20
2014,10,24,08,39,6.20
2014,10,24,08,40,6.20
2014,10,24,08,41,6.20
2014,10,24,08,42,6.20
2014,10,24,08,43,6.20
2014,10,24,08,44,6.20
2014,10,24,08,45,6.20
2014,10,24,08,46,6.20
2014,10,24,08,47,6.20
2014,10,24,08,48,6.20
2014,10,24,08,49,6.20
2014,10,24,08,50,6.20
2014,10,24,08,51,6.20
2014,10,24,08,52,6.20
2014,10,24,12,07,9.70
2014,10,24,12,08,9.80
2014,10,24,12,09,9.80
2014,10,24,12,10,9.80
2014,10,24,12,11,9.80
2014,10,24,12,12,9.80
2014,10,24,12,13,9.80
2014,10,24,12,14,9.90
2014,10,24,12,15,9.90
2014,10,24,12,16,9.90
2014,10,24,12,17,9.90
2014,10,24,12,18,9.90
2014,10,24,12,19,10.00
2014,10,24,12,20,10.00
2014,10,24,12,21,10.10
2014,10,24,12,22,10.20
2014,10,24,12,23,10.20
2014,10,24,12,24,10.20
2014,10,24,12,25,10.20
2014,10,24,12,26,10.20
2014,10,24,12,27,10.30
2014,10,24,12,28,10.30
2014,10,24,12,29,10.30
2014,10,24,12,30,10.30
2014,10,24,12,31,10.30
2014,10,24,12,32,10.40
2014,10,24,12,33,10.40
2014,10,24,12,34,10.40
2014,10,24,12,35,10.50
2014,10,24,12,36,10.50
2014,10,24,12,37,10.60
2014,10,24,12,38,10.60
2014,10,24,12,39,10.60
2014,10,24,12,40,10.60
2014,10,24,12,41,10.70
2014,10,24,12,42,10.70
2014,10,24,12,43,10.70
2014,10,24,12,44,10.70
2014,10,24,12,45,10.80
2014,10,24,12,46,10.80
2014,10,24,12,47,10.90
2014,10,24,12,48,10.90
2014,10,24,12,49,10.90
2014,10,24,12,50,10.90
2014,10,24,12,51,10.90
2014,10,24,12,52,10.90
2014,10,24,12,53,10.90
2014,10,24,12,54,10.90
2014,10,24,12,55,11.00
2014,10,24,12,56,11.00
2014,10,24,12,57,11.00
2014,10,24,12,58,11.00
2014,10,24,12,59,11.00
2014,10,24,13,00,11.00
2014,10,24,13,01,11.00
2014,10,24,13,02,11.00
2014,10,24,13,03,11.00
2014,10,24,13,04,11.00
2014,10,24,13,05,11.00
2014,10,24,13,06,11.00
2014,10,24,13,07,11.00
2014,10,24,13,08,11.00
2014,10,24,13,09,11.00
2014,10,24,13,10,11.00
2014,10,24,13,11,11.00
2014,10,24,13,12,11.00
2014,10,24,13,13,11.00
2014,10,24,13,14,11.00
2014,10,24,13,15,11.00
2014,10,24,13,16,11.00
2014,10,24,13,17,11.00
2014,10,24,13,18,11.00
2014,10,24,13,19,11.00
2014,10,24,13,20,11.00
2014,10,24,13,21,11.00
2014,10,24,13,22,11.10
2014,10,24,13,23,11.10
2014,10,24,13,24,11.10
2014,10,24,13,25,11.00
2014,10,24,13,26,11.00
2014,10,24,13,27,11.00
2014,10,24,13,28,11.00
2014,10,24,13,29,11.10
2014,10,24,13,30,11.10
2014,10,24,13,31,11.10
2014,10,24,13,32,11.10
2014,10,24,13,33,11.20
2014,10,24,13,34,11.20
2014,10,24,13,35,11.20
2014,10,24,13,36,11.20
2014,10,24,13,37,11.20
2014,10,24,13,38,11.20
2014,10,24,13,39,11.30
2014,10,24,13,40,11.30
2014,10,24,13,41,11.30
2014,10,24,13,42,11.20
2014,10,24,13,43,11.30
2014,10,24,13,44,11.30
2014,10,24,13,45,11.20
2014,10,24,13,46,11.20
2014,10,24,13,47,11.20
2014,10,24,13,48,11.20
2014,10,24,13,49,11.20
2014,10,24,13,50,11.20
2014,10,24,13,51,11.20
2014,10,24,13,52,11.20
2014,10,24,13,53,11.20
2014,10,24,13,54,11.20
2014,10,24,13,55,11.20
2014,10,24,13,56,11.20
2014,10,24,13,57,11.20
2014,10,24,13,58,11.20
2014,10,24,13,59,11.20
2014,10,24,14,00,11.30
2014,10,24,14,01,11.20
2014,10,24,14,02,11.20
2014,10,24,14,03,11.20
2014,10,24,14,04,11.20
2014,10,24,14,05,11.20
2014,10,24,14,06,11.20
2014,10,24,14,07,11.20
2014,10,24,14,08,11.20
2014,10,24,14,09,11.20
2014,10,24,14,10,11.20
2014,10,24,14,11,11.20
2014,10,24,14,12,11.20
2014,10,24,14,13,11.20
2014,10,24,14,14,11.20
2014,10,24,14,15,11.30
2014,10,24,14,16,11.30
2014,10,24,14,17,11.30
2014,10,24,14,18,11.30
2014,10,24,14,19,11.40
2014,10,24,14,20,11.40
2014,10,24,14,21,11.40
2014,10,24,14,22,11.40
2014,10,24,14,23,11.30
2014,10,24,14,24,11.40
2014,10,24,14,25,11.40
2014,10,24,14,26,11.30
2014,10,24,14,27,11.30
2014,10,24,14,28,11.30
2014,10,24,14,29,11.30
2014,10,24,14,30,11.30
2014,10,24,14,31,11.30
2014,10,24,14,32,11.30
2014,10,24,14,33,11.30
2014,10,24,14,34,11.30
2014,10,24,14,35,11.30
2014,10,24,14,36,11.30
2014,10,24,14,37,11.20
2014,10,24,14,38,11.20
2014,10,24,14,39,11.20
2014,10,24,14,40,11.20
2014,10,24,14,41,11.20
2014,10,24,14,42,11.20
2014,10,24,14,43,11.20
2014,10,24,14,44,11.20
2014,10,24,14,45,11.20
2014,10,24,14,46,11.20
2014,10,24,14,47,11.20
2014,10,24,14,48,11.20
2014,10,24,14,49,11.20
2014,10,24,14,50,11.20
2014,10,24,14,51,11.30
2014,10,24,14,52,11.30
2014,10,24,14,53,11.30
2014,10,24,14,54,11.20
2014,10,24,14,55,11.20
2014,10,24,14,56,11.30
2014,10,24,14,57,11.30
2014,10,24,14,58,11.30
2014,10,24,14,59,11.30
2014,10,24,15,00,11.30
2014,10,24,15,01,11.30
2014,10,24,15,02,11.40
2014,10,24,15,03,11.40
2014,10,24,15,04,11.40
2014,10,24,15,07,11.40
2014,10,24,15,08,11.40
2014,10,24,15,09,11.40
2014,10,24,15,10,11.40
2014,10,24,15,11,11.40
2014,10,24,15,12,11.40
2014,10,24,15,13,11.40
2014,10,24,15,14,11.40
2014,10,24,15,15,11.40
2014,10,24,15,16,11.40
2014,10,24,15,17,11.40
2014,10,24,15,18,11.40
2014,10,24,15,19,11.40
2014,10,24,15,20,11.40
2014,10,24,15,21,11.40
2014,10,24,15,22,11.30
2014,10,24,15,23,11.30
2014,10,24,15,24,11.30
2014,10,24,15,25,11.20
2014,10,24,15,26,11.20
2014,10,24,15,27,11.20
2014,10,24,15,28,11.20
2014,10,24,15,29,11.20
2014,10,24,15,30,11.20
2014,10,24,15,31,11.10
2014,10,24,15,32,11.10
2014,10,24,15,33,11.10
2014,10,24,15,34,11.10
2014,10,24,15,35,11.10
2014,10,24,15,36,11.00
2014,10,24,15,37,11.00
2014,10,24,15,38,11.00
2014,10,24,15,39,11.00
2014,10,24,15,40,11.00
2014,10,24,15,41,11.00
2014,10,24,15,42,11.00
2014,10,24,15,43,11.00
2014,10,24,15,44,10.90
2014,10,24,15,45,10.90
2014,10,24,15,46,10.90
2014,10,24,15,47,10.80
2014,10,24,15,48,10.80
2014,10,24,15,49,10.80
2014,10,24,15,50,10.80
2014,10,24,15,51,10.80
2014,10,24,15,52,10.80
2014,10,24,15,53,10.80
2014,10,24,15,54,10.80
2014,10,24,15,55,10.80
2014,10,24,15,56,10.80
2014,10,24,15,57,10.80
2014,10,24,15,58,10.80
2014,10,24,15,59,10.70
2014,10,24,16,00,10.70
2014,10,24,16,01,10.70
2014,10,24,16,02,10.70
2014,10,24,16,03,10.70
2014,10,24,16,04,10.70
2014,10,24,16,05,10.70
2014,10,24,16,06,10.70
2014,10,24,16,07,10.70
2014,10,24,16,08,10.70
2014,10,24,16,09,10.70
2014,10,24,16,10,10.60
2014,10,24,16,11,10.60
2014,10,24,16,12,10.60
2014,10,24,16,13,10.60
2014,10,24,16,14,10.60
2014,10,24,16,15,10.60
2014,10,24,16,16,10.60
2014,10,24,16,17,10.60
2014,10,24,16,18,10.60
2014,10,24,16,19,10.60
2014,10,24,16,20,10.60
2014,10,24,16,21,10.60
2014,10,24,16,22,10.60
2014,10,24,16,23,10.60
2014,10,24,16,24,10.60
2014,10,24,16,25,10.60
2014,10,24,16,26,10.60
2014,10,24,16,27,10.50
2014,10,24,16,28,10.50
2014,10,24,16,29,10.40
2014,10,24,16,30,10.40
2014,10,24,16,31,10.40
2014,10,24,16,32,10.40
2014,10,24,16,33,10.40
2014,10,24,16,34,10.40
2014,10,24,16,35,10.40
2014,10,24,16,36,10.40
2014,10,24,16,37,10.40
2014,10,24,16,38,10.30
2014,10,24,16,39,10.30
2014,10,24,16,40,10.30
2014,10,24,16,41,10.30
2014,10,24,16,42,10.20
2014,10,24,16,43,10.20
2014,10,24,16,44,10.20
2014,10,24,16,45,10.20
2014,10,24,16,46,10.20
2014,10,24,16,47,10.20
2014,10,24,16,48,10.20
2014,10,24,16,49,10.20
2014,10,24,16,50,10.20
2014,10,24,16,51,10.20
2014,10,24,16,52,10.20
2014,10,24,16,53,10.20
2014,10,24,16,54,10.20
2014,10,24,16,55,10.20
2014,10,24,16,56,10.10
2014,10,24,16,57,10.10
2014,10,24,16,58,10.10
2014,10,24,16,59,10.10
2014,10,24,17,00,10.10
2014,10,24,17,01,10.00
2014,10,24,17,02,10.00
2014,10,24,17,03,10.00
2014,10,24,17,04,9.90
2014,10,24,17,05,9.90
2014,10,24,17,06,9.90
2014,10,24,17,07,9.90
2014,10,24,17,08,9.90
2014,10,24,17,09,9.80
2014,10,24,17,10,9.80
2014,10,24,17,11,9.80
2014,10,24,17,12,9.80
2014,10,24,17,13,9.80
2014,10,24,17,14,9.80
2014,10,24,17,15,9.80
2014,10,24,17,16,9.80
2014,10,24,17,17,9.80
2014,10,24,17,18,9.80
2014,10,24,17,19,9.80
2014,10,24,17,20,9.80
2014,10,24,17,21,9.80
2014,10,24,17,22,9.70
2014,10,24,17,23,9.70
2014,10,24,17,24,9.70
2014,10,24,17,25,9.70
2014,10,24,17,26,9.70
2014,10,24,17,27,9.70
2014,10,24,17,28,9.70
2014,10,24,17,29,9.70
2014,10,24,17,30,9.70
2014,10,24,17,31,9.70
2014,10,24,17,32,9.60
2014,10,24,17,33,9.60
2014,10,24,17,34,9.60
2014,10,24,17,35,9.60
2014,10,24,17,36,9.60
2014,10,24,17,37,9.50
2014,10,24,17,38,9.50
2014,10,24,17,39,9.50
2014,10,24,17,40,9.50
2014,10,24,17,41,9.50
2014,10,24,17,42,9.40
2014,10,24,17,43,9.40
2014,10,24,17,44,9.40
2014,10,24,17,45,9.40
2014,10,24,17,46,9.40
2014,10,24,17,47,9.40
2014,10,24,17,48,9.40
2014,10,24,17,49,9.30
2014,10,24,17,50,9.30
2014,10,24,17,51,9.30
2014,10,24,17,52,9.30
2014,10,24,17,53,9.30
2014,10,24,17,54,9.30
2014,10,24,17,55,9.30
2014,10,24,17,56,9.30
2014,10,24,17,57,9.30
2014,10,24,17,58,9.30
2014,10,24,17,59,9.30
2014,10,24,18,00,9.20
2014,10,24,18,01,9.20
2014,10,24,18,02,9.20
2014,10,24,18,03,9.20
2014,10,24,18,04,9.20
2014,10,24,18,05,9.20
2014,10,24,18,06,9.20
2014,10,24,18,07,9.30
2014,10,24,18,08,9.30
2014,10,24,18,09,9.30
2014,10,24,18,10,9.30
2014,10,24,18,11,9.30
2014,10,24,18,12,9.40
2014,10,24,18,13,9.40
2014,10,24,18,14,9.40
2014,10,24,18,15,9.40
2014,10,24,18,16,9.40
2014,10,24,18,17,9.40
2014,10,24,18,18,9.40
2014,10,24,18,19,9.40
2014,10,24,18,20,9.40
2014,10,24,18,21,9.40
2014,10,24,18,22,9.40
2014,10,24,18,23,9.40
2014,10,24,18,24,9.40
2014,10,24,18,25,9.40
2014,10,24,18,26,9.40
2014,10,24,18,27,9.40
2014,10,24,18,28,9.40
2014,10,24,18,29,9.40
2014,10,24,18,30,9.40
2014,10,24,18,31,9.40
2014,10,24,18,32,9.40
2014,10,24,18,33,9.40
2014,10,24,18,34,9.40
2014,10,24,18,35,9.30
2014,10,24,18,36,9.30
2014,10,24,18,37,9.30
2014,10,24,18,38,9.30
2014,10,24,18,39,9.30
2014,10,24,18,40,9.30
2014,10,24,18,41,9.30
2014,10,24,18,42,9.30
2014,10,24,18,43,9.30
2014,10,24,18,44,9.20
2014,10,24,18,45,9.20
2014,10,24,18,46,9.20
2014,10,24,18,47,9.20
2014,10,24,18,48,9.20
2014,10,24,18,49,9.20
2014,10,24,18,50,9.10
2014,10,24,18,51,9.20
2014,10,24,18,52,9.10
2014,10,24,18,53,9.10
2014,10,24,18,54,9.20
2014,10,24,18,55,9.20
2014,10,24,18,56,9.20
2014,10,24,18,57,9.10
2014,10,24,18,58,9.10
2014,10,24,18,59,9.10
2014,10,24,19,00,9.10
2014,10,24,19,01,9.10
2014,10,24,19,02,9.10
2014,10,24,19,03,9.10
2014,10,24,19,04,9.10
2014,10,24,19,05,9.00
2014,10,24,19,06,9.00
2014,10,24,19,07,9.00
2014,10,24,19,08,9.00
2014,10,24,19,09,9.00
2014,10,24,19,10,8.90
2014,10,24,19,11,8.90
2014,10,24,19,12,8.90
2014,10,24,19,13,8.90
2014,10,24,19,14,8.90
2014,10,24,19,15,8.90
2014,10,24,19,16,8.90
2014,10,24,19,17,8.80
2014,10,24,19,18,8.80
2014,10,24,19,19,8.80
2014,10,24,19,20,8.90
2014,10,24,19,21,8.90
2014,10,24,19,22,8.90
2014,10,24,19,23,8.90
2014,10,24,19,24,8.90
2014,10,24,19,25,8.90
2014,10,24,19,26,9.00
2014,10,24,19,27,9.00
2014,10,24,19,28,9.00
2014,10,24,19,29,9.00
2014,10,24,19,30,9.10
2014,10,24,19,31,9.10
2014,10,24,19,32,9.10
2014,10,24,19,33,9.10
2014,10,24,19,34,9.10
2014,10,24,19,35,9.10
2014,10,24,19,36,9.10
2014,10,24,19,37,9.10
2014,10,24,19,38,9.10
2014,10,24,19,39,9.10
2014,10,24,19,40,9.10
2014,10,24,19,41,9.20
2014,10,24,19,42,9.20
2014,10,24,19,43,9.20
2014,10,24,19,44,9.20
2014,10,24,19,45,9.20
2014,10,24,19,46,9.20
2014,10,24,19,47,9.20
2014,10,24,19,48,9.30
2014,10,24,19,49,9.30
2014,10,24,19,50,9.30
2014,10,24,19,51,9.30
2014,10,24,19,52,9.30
2014,10,24,19,53,9.30
2014,10,24,19,54,9.30
2014,10,24,19,55,9.30
2014,10,24,19,56,9.30
2014,10,24,19,57,9.30
2014,10,24,19,58,9.30
2014,10,24,19,59,9.30
2014,10,24,20,00,9.30
2014,10,24,20,01,9.30
2014,10,24,20,02,9.30
2014,10,24,20,03,9.30
2014,10,24,20,04,9.30
2014,10,24,20,05,9.30
2014,10,24,20,06,9.30
2014,10,24,20,07,9.30
2014,10,24,20,08,9.30
2014,10,24,20,09,9.30
2014,10,24,20,10,9.30
2014,10,24,20,11,9.30
2014,10,24,20,12,9.40
2014,10,24,20,13,9.40
2014,10,24,20,14,9.40
2014,10,24,20,15,9.40
2014,10,24,20,16,9.40
2014,10,24,20,17,9.40
2014,10,24,20,18,9.40
2014,10,24,20,19,9.40
2014,10,24,20,20,9.50
2014,10,24,20,21,9.40
2014,10,24,20,22,9.40
2014,10,24,20,23,9.50
2014,10,24,20,24,9.50
2014,10,24,20,25,9.50
2014,10,24,20,26,9.50
2014,10,24,20,27,9.50
2014,10,24,20,28,9.50
2014,10,24,20,29,9.50
2014,10,24,20,30,9.60
2014,10,24,20,31,9.60
2014,10,24,20,32,9.60
2014,10,24,20,33,9.60
2014,10,24,20,34,9.60
2014,10,24,20,35,9.60
2014,10,24,20,36,9.60
2014,10,24,20,37,9.60
2014,10,24,20,38,9.60
2014,10,24,20,39,9.60
2014,10,24,20,40,9.70
2014,10,24,20,41,9.70
2014,10,24,20,42,9.70
2014,10,24,20,43,9.70
2014,10,24,20,44,9.70
2014,10,24,20,45,9.70
2014,10,24,20,46,9.70
2014,10,24,20,47,9.70
2014,10,24,20,48,9.70
2014,10,24,20,49,9.70
2014,10,24,20,50,9.70
2014,10,24,20,51,9.70
2014,10,24,20,52,9.60
2014,10,24,20,53,9.60
2014,10,24,20,54,9.60
2014,10,24,20,55,9.60
2014,10,24,20,56,9.60
2014,10,24,20,57,9.60
2014,10,24,20,58,9.60
2014,10,24,20,59,9.60
2014,10,24,21,00,9.60
2014,10,24,21,01,9.60
2014,10,24,21,02,9.50
2014,10,24,21,03,9.50
2014,10,24,21,04,9.50
2014,10,24,21,05,9.50
2014,10,24,21,06,9.50
2014,10,24,21,07,9.40
2014,10,24,21,08,9.40
2014,10,24,21,09,9.40